Wetbulb
75.81 77.09 78.10 77.51 77.89 78.40 78.42 78.73 78.40 77.94 77.36 76.58 76.50 76.29 75.85 76.48 76.48 76.91 77.08 77.36 77.10 76.83 76.38 75.88 75.83 75.98 74.97 75.22 73.65 74.02 73.89 73.36 74.03 74.19 73.96 73.92 73.73 73.32 72.74 72.27 72.15 72.88 72.68
77.26 76.82 77.66 77.67 77.89 78.25 78.40 78.53 78.04 77.62 77.11 76.98 77.19 76.76 76.05 76.61 76.83 77.11 77.16 77.16 76.97 76.96 75.96 76.01 76.48 76.22 74.68 75.05 73.83 73.86 73.80 73.87 74.15 74.20 74.49 74.23 73.82 73.34 72.57 72.14 72.66 73.34 72.65
77.79 77.13 76.20 77.56 77.77 77.87 78.04 78.22 77.56 77.24 77.01 77.19 77.31 76.71 76.41 76.86 76.61 76.58 76.93 76.98 77.01 76.86 76.37 75.62 76.01 75.75 74.75 74.24 74.87 74.16 74.17 74.11 74.68 75.38 75.75 75.38 74.23 74.00 72.93 72.23 71.74 72.74 72.44
77.53 77.09 75.78 77.21 77.67 77.72 77.77 77.86 77.69 77.62 77.24 77.14 77.18 76.71 76.71 76.91 76.81 76.45 76.63 76.75 76.81 76.55 76.26 75.51 74.92 74.74 74.39 74.27 74.08 73.97 74.06 74.24 75.27 75.77 75.45 76.80 75.29 74.91 73.69 72.85 72.54 72.74 72.69
78.14 77.45 77.60 77.59 77.36 77.26 77.34 77.46 77.88 77.88 77.94 77.74 77.31 77.21 76.83 76.68 76.88 76.63 76.23 76.45 76.32 76.00 75.69 75.15 74.20 73.80 73.44 73.53 73.95 73.83 73.91 74.08 74.93 75.34 74.99 75.55 75.31 74.87 74.14 73.59 73.64 73.59 73.22
78.02 78.02 77.02 77.64 77.29 77.11 76.88 77.16 77.48 77.78 77.93 77.88 77.76 77.46 77.04 76.56 76.43 76.31 76.07 75.91 76.00 75.63 75.24 74.88 74.26 73.34 72.78 72.82 73.22 73.65 73.88 73.99 74.03 72.71 74.29 74.63 74.64 74.73 74.84 74.38 74.08 73.60 73.57
77.07 79.50 77.16 77.51 77.18 76.58 76.40 76.61 76.93 77.13 77.40 77.53 77.43 76.96 76.76 76.41 76.13 76.03 75.93 75.93 75.99 75.60 75.18 74.89 74.65 74.09 72.91 72.82 73.13 73.43 73.43 73.56 72.46 72.61 75.42 75.75 74.48 75.02 75.76 74.98 74.62 74.21 73.58
77.03 78.35 77.19 77.11 77.01 76.83 76.36 76.26 76.50 76.80 77.00 77.10 76.90 76.61 76.41 76.05 75.73 75.80 75.73 75.82 76.03 76.09 75.75 75.53 74.95 74.17 73.55 73.52 73.23 73.68 73.81 73.62 72.43 71.42 74.36 75.85 73.93 75.57 76.15 75.84 75.59 74.65 74.01
77.61 77.90 77.24 76.70 77.04 76.36 76.48 76.00 76.02 76.17 76.47 76.41 76.34 76.39 76.10 75.60 75.55 75.65 75.90 75.70 75.74 75.76 75.64 75.59 75.34 74.77 73.91 73.31 73.46 73.29 73.37 73.57 72.01 71.53 74.27 74.98 75.60 75.93 75.40 76.02 75.57 74.59 73.94
76.95 77.80 77.74 77.59 76.93 76.34 76.04 76.05 75.82 75.80 75.80 75.69 75.50 75.55 75.45 75.05 75.20 75.13 75.60 75.73 75.47 75.52 75.47 75.40 75.07 74.55 74.07 73.88 73.81 73.61 73.19 73.11 71.36 69.98 71.93 73.90 75.16 75.22 74.84 75.79 75.69 75.17 73.97
75.10 76.69 77.62 78.12 77.66 77.11 76.81 76.52 75.55 75.33 75.30 75.23 75.02 75.15 75.03 73.06 74.20 74.34 74.01 75.57 75.30 75.48 75.60 75.38 75.13 74.95 74.48 74.35 74.33 73.78 72.86 69.77 68.70 68.83 69.40 75.01 75.83 75.35 75.44 75.85 76.28 75.80 74.73
73.49 75.31 76.69 78.80 78.44 78.07 76.97 77.76 76.00 75.47 74.60 74.27 74.29 74.87 73.86 74.22 74.71 74.37 75.47 76.00 75.53 75.45 75.65 75.80 75.82 75.72 74.90 73.33 72.99 73.97 72.38 71.67 68.80 68.43 68.74 75.23 75.44 74.88 75.13 76.30 76.56 76.13 75.18
71.50 73.00 73.02 78.16 78.59 78.21 77.55 78.48 77.04 76.87 75.86 75.10 75.49 76.34 75.41 75.14 75.04 73.93 73.84 74.79 75.35 75.00 74.26 74.97 75.19 74.94 75.09 73.86 72.84 73.44 73.85 72.74 71.44 70.16 71.52 75.17 74.81 75.01 74.62 74.91 76.15 76.48 75.64
66.54 69.58 71.69 73.82 77.67 78.96 77.82 77.53 77.57 76.75 76.82 76.20 76.30 76.73 76.24 75.38 75.39 75.25 74.59 75.34 74.87 73.91 74.51 75.27 74.48 73.67 74.75 74.02 73.66 72.70 72.11 72.02 71.78 71.52 72.42 74.77 74.10 74.42 74.70 74.42 74.54 75.23 76.09
63.49 65.14 68.50 72.99 76.82 78.52 79.02 78.89 78.87 77.01 76.32 76.53 76.47 76.42 75.69 75.66 75.10 74.89 74.18 73.83 73.18 73.43 72.39 73.10 73.99 74.46 74.64 74.49 74.30 74.03 73.26 72.01 71.51 71.86 72.38 74.87 73.43 73.52 73.95 74.22 74.25 74.49 75.03
62.30 65.62 68.47 71.05 76.27 77.60 78.15 79.19 78.86 77.66 77.19 76.87 76.20 75.52 76.26 76.64 77.70 76.76 77.38 75.18 73.77 75.49 74.49 73.86 73.75 72.88 72.30 72.17 72.36 73.20 73.71 74.38 73.76 73.76 71.73 72.80 72.66 72.18 72.54 73.02 73.40 73.65 74.08
63.01 64.73 68.44 71.97 77.09 78.10 78.65 78.75 77.91 77.80 76.89 76.56 75.97 76.90 75.98 76.92 76.99 76.36 73.84 72.77 71.06 72.09 72.74 73.14 71.92 71.24 69.68 69.84 71.18 71.14 71.34 73.69 73.11 73.75 75.12 73.26 72.88 71.41 71.50 71.86 72.51 73.04 73.22
63.53 64.97 69.08 68.37 75.52 78.02 78.34 78.48 78.17 78.10 78.01 76.62 77.94 76.51 76.27 76.11 75.71 74.93 70.85 69.90 71.31 70.91 68.63 68.13 68.28 67.54 67.51 68.10 69.37 69.99 70.92 71.95 72.41 73.51 73.02 74.02 74.34 73.23 72.85 71.49 71.77 72.48 72.79
66.09 66.52 69.04 71.81 72.80 77.57 78.41 77.86 77.59 78.60 76.27 75.45 74.99 74.40 74.87 73.06 71.91 71.16 69.07 68.57 70.18 66.87 66.41 66.05 66.16 67.75 66.88 66.82 67.32 68.49 69.81 70.66 72.06 70.71 73.31 72.64 71.88 73.77 74.07 73.86 71.27 71.48 71.89
67.01 67.50 68.81 72.92 74.87 77.25 77.61 77.63 75.07 75.51 73.94 73.43 73.08 72.13 71.91 70.65 69.58 68.98 66.94 68.76 69.02 66.56 65.71 66.94 69.84 67.77 67.67 67.22 65.89 66.63 68.33 69.65 70.67 71.13 72.12 72.85 72.58 71.92 73.44 75.73 75.31 72.03 70.93
65.12 68.15 70.25 73.11 76.84 75.95 75.06 73.32 71.84 71.46 71.97 70.24 70.39 70.58 69.70 68.38 68.65 69.11 67.11 68.40 68.75 67.37 69.17 69.63 67.45 67.03 65.39 67.25 66.15 66.32 66.99 68.83 69.77 71.38 71.53 71.68 72.12 73.04 73.90 73.28 74.52 74.33 73.88
68.14 70.37 71.87 73.68 75.23 75.67 74.36 75.08 72.10 70.80 69.53 69.21 69.08 69.24 68.80 67.46 67.56 67.03 68.07 67.82 70.72 66.15 69.32 69.37 69.40 64.91 64.61 66.97 63.94 65.01 62.59 64.87 67.01 68.99 70.55 70.78 71.75 73.19 72.89 74.16 72.43 71.64 74.70
67.40 68.99 70.27 71.57 72.75 72.76 72.58 70.88 70.64 70.29 69.06 66.55 66.82 66.88 68.01 66.31 66.69 67.09 66.99 66.78 67.62 68.05 64.40 68.32 66.97 67.23 62.35 65.45 67.09 63.86 60.72 59.78 64.07 67.20 67.81 67.88 68.93 71.47 70.04 69.47 71.17 73.31 74.97
65.85 67.32 68.47 68.98 69.16 68.97 70.73 70.87 71.60 66.43 64.54 65.89 66.08 65.93 65.66 65.61 65.09 65.02 65.33 64.88 66.61 64.65 66.06 64.62 65.27 66.78 65.54 62.34 64.22 65.29 66.97 66.47 61.24 60.85 66.80 68.12 68.96 68.79 69.75 70.43 72.04 72.45 73.95
65.10 65.56 66.28 66.57 66.58 66.90 67.37 67.54 65.35 65.83 64.58 64.23 64.88 64.64 65.30 66.37 64.44 63.05 63.65 63.86 64.22 63.14 64.66 65.05 65.49 65.65 64.03 63.18 62.75 62.83 64.41 64.22 66.03 64.97 60.50 64.09 66.37 67.87 68.63 68.63 68.07 67.95 72.45
63.66 63.99 64.77 64.88 64.85 64.76 64.47 64.46 65.41 64.00 64.20 62.86 63.93 62.52 61.90 62.05 62.21 63.48 62.61 63.24 63.73 63.91 64.23 63.56 65.03 65.23 65.20 65.31 64.43 64.13 61.98 61.70 61.69 61.96 61.06 62.86 61.84 66.10 67.18 67.43 68.55 69.89 71.64
MSLP
1005.22 1007.34 1008.48 1008.83 1009.10 1009.34 1009.71 1010.07 1010.22 1010.50 1010.91 1011.26 1011.49 1011.72 1011.98 1012.13 1012.32 1012.52 1012.71 1012.89 1013.10 1013.24 1013.34 1013.52 1013.69 1013.84 1014.00 1014.07 1014.14 1014.16 1014.12 1014.18 1014.34 1014.47 1014.61 1014.74 1014.80 1014.85 1014.85 1014.83 1014.96 1014.42 1015.07
1005.59 1007.47 1008.75 1009.08 1009.41 1009.61 1009.91 1010.27 1010.52 1010.76 1011.05 1011.45 1011.67 1011.93 1012.25 1012.38 1012.54 1012.74 1012.93 1013.09 1013.25 1013.36 1013.50 1013.65 1013.80 1013.99 1014.12 1014.20 1014.33 1014.44 1014.55 1014.64 1014.65 1014.69 1014.65 1014.68 1014.65 1014.84 1014.93 1014.97 1015.01 1014.97 1015.23
1006.07 1007.57 1008.59 1009.27 1009.58 1009.87 1010.18 1010.48 1010.78 1010.99 1011.30 1011.62 1011.74 1012.08 1012.35 1012.56 1012.71 1012.89 1013.11 1013.26 1013.39 1013.52 1013.67 1013.85 1014.00 1014.14 1014.27 1014.35 1014.45 1014.58 1014.68 1014.79 1014.89 1014.73 1014.42 1013.98 1013.71 1014.55 1014.86 1014.95 1015.09 1015.22 1015.33
1006.61 1007.60 1008.33 1009.48 1009.78 1010.02 1010.33 1010.65 1010.94 1011.27 1011.51 1011.69 1011.94 1012.23 1012.50 1012.67 1012.89 1013.05 1013.22 1013.43 1013.59 1013.72 1013.87 1014.00 1014.15 1014.28 1014.40 1014.51 1014.61 1014.67 1014.79 1014.84 1014.83 1014.64 1014.04 1013.08 1012.64 1014.11 1014.64 1014.91 1015.06 1015.16 1015.27
1006.81 1007.48 1008.63 1009.48 1009.90 1010.22 1010.47 1010.78 1011.06 1011.34 1011.58 1011.78 1012.12 1012.44 1012.74 1012.95 1013.06 1013.18 1013.40 1013.58 1013.72 1013.85 1013.95 1014.08 1014.24 1014.36 1014.51 1014.61 1014.67 1014.78 1014.83 1014.84 1014.83 1014.50 1013.50 1012.47 1012.35 1013.76 1014.33 1014.77 1014.97 1015.07 1015.21
1006.68 1007.15 1009.32 1009.75 1010.06 1010.43 1010.73 1011.09 1011.34 1011.56 1011.76 1011.96 1012.20 1012.50 1012.76 1013.02 1013.22 1013.36 1013.52 1013.75 1013.88 1013.96 1014.02 1014.14 1014.31 1014.46 1014.56 1014.61 1014.69 1014.78 1014.87 1014.85 1014.84 1013.85 1012.81 1012.65 1012.86 1013.81 1014.14 1014.55 1014.80 1014.98 1015.19
1006.22 1007.38 1008.96 1009.90 1010.32 1010.69 1010.93 1011.27 1011.49 1011.71 1012.00 1012.25 1012.48 1012.71 1012.94 1013.17 1013.33 1013.50 1013.66 1013.84 1013.98 1014.09 1014.16 1014.23 1014.32 1014.47 1014.56 1014.62 1014.69 1014.73 1014.78 1014.82 1014.48 1013.29 1012.68 1012.65 1013.03 1013.58 1013.87 1014.24 1014.65 1014.88 1015.07
1006.05 1007.14 1009.04 1010.05 1010.36 1010.73 1011.08 1011.42 1011.66 1011.92 1012.13 1012.34 1012.56 1012.78 1013.05 1013.27 1013.43 1013.52 1013.72 1013.83 1013.93 1014.04 1014.19 1014.30 1014.38 1014.44 1014.47 1014.54 1014.54 1014.66 1014.72 1014.72 1014.12 1013.34 1012.43 1011.67 1012.72 1013.22 1013.50 1013.87 1014.31 1014.67 1014.91
1005.88 1006.88 1008.43 1009.35 1010.16 1010.71 1011.01 1011.31 1011.66 1012.01 1012.27 1012.46 1012.71 1012.92 1013.13 1013.31 1013.50 1013.62 1013.73 1013.92 1013.98 1014.16 1014.20 1014.23 1014.30 1014.35 1014.39 1014.39 1014.45 1014.51 1014.58 1014.57 1014.18 1013.02 1011.94 1011.27 1012.64 1013.04 1013.31 1013.75 1014.09 1014.43 1014.74
1005.66 1006.16 1007.41 1008.37 1009.39 1009.87 1010.57 1011.36 1011.61 1011.84 1012.16 1012.46 1012.72 1012.96 1013.18 1013.39 1013.53 1013.65 1013.84 1013.89 1014.04 1014.13 1014.23 1014.26 1014.32 1014.32 1014.34 1014.32 1014.26 1014.25 1014.24 1014.26 1013.87 1012.98 1012.10 1011.21 1012.10 1012.53 1012.99 1013.62 1013.91 1014.18 1014.46
1005.15 1005.78 1006.39 1007.42 1008.37 1008.66 1008.98 1010.79 1011.65 1012.02 1012.23 1012.47 1012.68 1012.92 1013.12 1012.59 1012.89 1013.09 1013.13 1013.48 1013.88 1014.09 1014.21 1014.26 1014.30 1014.26 1014.19 1014.07 1013.81 1013.67 1013.75 1013.19 1012.45 1011.86 1011.40 1011.42 1011.87 1011.98 1012.50 1013.22 1013.54 1013.73 1013.98
1004.44 1005.17 1005.85 1007.31 1007.69 1007.96 1007.81 1009.95 1010.60 1011.05 1011.54 1011.83 1011.92 1012.43 1012.37 1011.80 1011.60 1011.83 1012.33 1013.29 1013.62 1013.83 1013.90 1013.92 1013.87 1013.86 1013.91 1012.96 1011.95 1012.83 1012.89 1012.06 1011.64 1011.00 1010.47 1011.00 1011.39 1011.63 1012.11 1012.72 1013.14 1013.30 1013.50
1004.00 1004.97 1005.81 1007.06 1007.90 1007.65 1008.05 1008.96 1009.43 1009.80 1010.51 1011.24 1011.34 1011.62 1011.75 1011.28 1011.72 1011.79 1011.87 1012.32 1012.69 1013.05 1012.84 1012.66 1012.95 1013.01 1012.24 1011.65 1011.02 1010.85 1010.85 1010.35 1010.28 1010.16 1009.91 1010.46 1010.76 1011.14 1011.57 1011.98 1012.48 1012.78 1012.92
1004.54 1005.36 1006.30 1006.76 1007.94 1008.28 1007.64 1008.69 1008.76 1009.15 1009.74 1010.27 1010.63 1011.22 1011.13 1011.54 1011.43 1011.80 1011.42 1011.54 1012.01 1012.74 1012.45 1011.98 1011.86 1011.99 1011.42 1011.38 1011.29 1010.99 1010.59 1010.29 1009.96 1009.63 1009.50 1009.98 1010.32 1010.61 1010.95 1011.30 1011.63 1011.96 1012.22
1005.14 1006.23 1007.02 1007.35 1008.00 1008.45 1008.77 1008.67 1009.22 1009.51 1010.18 1010.15 1010.73 1011.39 1011.82 1012.06 1012.15 1012.36 1012.64 1012.79 1012.82 1013.12 1013.05 1012.86 1012.41 1011.95 1011.69 1011.48 1011.04 1010.79 1010.55 1010.16 1009.81 1009.53 1009.26 1009.52 1009.72 1010.06 1010.36 1010.65 1010.97 1011.24 1011.41
1005.32 1006.26 1006.78 1007.41 1008.08 1008.65 1009.04 1009.31 1009.77 1009.93 1010.14 1010.26 1010.32 1010.71 1011.25 1011.28 1012.05 1012.39 1012.55 1012.32 1011.81 1011.89 1011.87 1012.26 1012.15 1011.92 1011.31 1010.89 1010.65 1010.63 1010.57 1010.04 1009.66 1009.31 1008.98 1008.70 1008.93 1009.02 1009.28 1009.61 1009.96 1010.23 1010.44
1005.80 1006.26 1007.13 1007.60 1008.36 1009.30 1009.51 1009.81 1009.96 1009.93 1009.99 1010.18 1010.16 1010.82 1011.40 1011.60 1011.89 1011.95 1011.52 1011.73 1011.34 1011.51 1011.86 1011.60 1011.49 1011.23 1010.94 1010.43 1010.01 1009.77 1009.68 1009.50 1009.49 1009.39 1008.93 1008.62 1008.22 1008.49 1008.31 1008.45 1008.63 1008.85 1009.15
1006.04 1006.17 1006.93 1006.81 1007.77 1009.29 1009.65 1009.81 1009.57 1009.73 1009.68 1010.27 1010.49 1010.74 1011.37 1011.66 1011.52 1011.79 1011.54 1011.65 1011.96 1012.30 1011.72 1011.61 1011.53 1011.29 1010.97 1010.58 1010.14 1009.77 1009.39 1008.89 1008.77 1008.66 1008.72 1008.56 1007.55 1007.29 1007.14 1007.50 1007.53 1007.70 1007.90
1006.53 1006.83 1007.00 1007.08 1007.37 1008.91 1009.71 1009.62 1009.47 1009.84 1009.39 1009.47 1009.55 1009.62 1010.64 1011.11 1011.57 1011.95 1011.70 1011.93 1012.48 1012.15 1011.86 1011.74 1011.62 1011.61 1011.30 1010.89 1010.26 1009.56 1009.10 1008.52 1008.11 1007.66 1007.45 1007.91 1007.98 1007.43 1006.26 1006.01 1006.58 1006.64 1006.72
1006.88 1007.30 1007.47 1007.34 1007.55 1008.63 1009.35 1009.56 1009.18 1009.80 1009.46 1009.30 1009.72 1010.54 1011.52 1011.75 1012.07 1012.25 1011.96 1012.40 1012.62 1012.25 1012.09 1012.13 1012.46 1012.03 1011.67 1010.93 1010.10 1009.42 1009.23 1008.56 1007.96 1007.52 1007.06 1006.83 1006.76 1006.92 1006.48 1005.37 1004.92 1005.51 1005.55
1007.60 1007.69 1007.70 1007.70 1008.10 1008.64 1008.99 1008.77 1008.62 1008.92 1009.73 1010.20 1010.85 1011.57 1011.95 1012.11 1012.48 1012.54 1012.42 1012.45 1012.56 1012.50 1012.54 1012.59 1012.29 1011.85 1011.27 1010.82 1010.04 1009.23 1008.52 1008.01 1007.37 1006.65 1006.44 1006.10 1005.63 1005.28 1005.09 1005.30 1004.57 1003.52 1002.28
1008.09 1008.21 1008.28 1008.36 1008.95 1008.99 1008.74 1008.64 1008.63 1009.30 1010.11 1010.49 1011.37 1011.95 1012.18 1012.38 1012.64 1012.63 1013.06 1013.01 1012.96 1012.87 1012.72 1012.55 1012.22 1011.70 1011.21 1010.68 1010.03 1009.03 1007.82 1007.21 1006.73 1005.83 1005.36 1004.86 1004.35 1004.05 1003.89 1004.46 1004.30 1003.03 1003.10
1008.78 1009.03 1009.26 1009.49 1009.64 1009.62 1009.61 1009.91 1009.84 1010.26 1010.80 1011.02 1011.50 1011.58 1012.07 1012.37 1012.62 1012.90 1013.15 1013.32 1013.33 1013.26 1012.63 1012.38 1012.20 1011.91 1011.15 1010.60 1010.29 1009.58 1008.16 1006.99 1006.49 1006.50 1005.50 1004.90 1004.54 1004.00 1004.01 1004.20 1004.28 1002.92 1002.16
1009.28 1009.75 1010.07 1010.33 1010.44 1010.36 1010.20 1010.07 1010.20 1010.13 1010.19 1010.71 1011.17 1011.66 1012.22 1012.48 1012.70 1012.92 1013.07 1013.14 1013.35 1013.26 1012.99 1012.52 1012.01 1011.89 1011.46 1010.44 1009.86 1009.14 1008.52 1007.69 1007.07 1006.30 1005.98 1005.23 1004.80 1004.10 1003.58 1003.15 1002.29 1002.21 1001.83
1009.70 1010.24 1010.74 1011.10 1011.28 1011.36 1011.15 1010.94 1010.68 1010.67 1010.98 1011.16 1011.51 1012.23 1012.48 1012.46 1012.43 1012.59 1012.81 1013.05 1013.28 1013.24 1012.88 1012.81 1012.34 1011.87 1011.31 1010.49 1009.71 1008.93 1008.19 1007.61 1006.88 1006.73 1005.80 1004.86 1004.30 1003.56 1003.00 1002.86 1002.43 1002.07 1002.75
1009.94 1010.36 1011.00 1011.42 1011.65 1011.69 1011.68 1011.84 1011.73 1011.67 1011.73 1011.66 1011.92 1012.26 1012.11 1011.99 1012.25 1012.42 1012.63 1013.03 1013.21 1013.10 1012.66 1012.34 1012.07 1011.68 1011.11 1010.47 1009.78 1009.13 1008.47 1007.63 1006.79 1006.20 1006.25 1005.54 1004.65 1003.61 1002.65 1002.30 1002.00 1001.23 1001.37
Wind_Speed
16 16 11 11 10 11 10 11 12 13 12 12 12 11 11 11 12 12 12 11 10 10 9 7 5 5 5 3 4 5 6 6 6 6 6 5 6 5 4 1 2 4 9
18 16 11 11 11 11 11 11 12 12 12 12 12 11 11 11 12 11 11 10 10 9 8 7 6 6 5 5 5 5 5 3 4 4 5 8 8 5 3 1 5 10 7
17 16 14 11 11 11 11 11 12 12 12 12 12 12 12 11 12 11 10 9 9 8 7 6 6 4 4 4 4 4 4 4 3 6 11 10 12 10 5 2 2 4 4
14 14 14 12 12 12 12 12 12 12 12 12 12 12 11 12 11 11 10 9 7 7 6 5 4 3 2 2 3 4 4 4 5 10 10 14 13 15 9 5 4 4 4
14 14 14 12 12 12 12 12 12 12 12 12 12 11 11 10 10 10 9 8 6 5 4 4 3 2 1 1 2 3 4 5 8 11 14 12 2 14 12 8 8 8 5
14 14 15 11 11 11 12 11 11 12 12 12 12 12 11 11 9 9 9 8 6 5 4 4 3 1 1 2 2 3 5 7 9 12 13 3 7 16 13 10 6 2 5
14 17 15 12 10 10 11 12 11 11 11 11 11 11 10 9 9 8 8 7 5 4 4 3 3 2 2 3 4 4 6 8 11 14 4 7 5 14 13 11 8 6 6
13 16 15 13 12 10 10 10 10 10 10 10 9 9 9 8 8 9 8 8 6 5 4 4 4 4 4 5 6 7 8 9 12 13 13 7 14 14 13 12 10 9 8
13 16 14 14 12 12 11 10 10 9 9 9 8 8 9 9 8 8 8 7 6 5 5 5 6 6 6 7 8 8 9 11 12 12 15 8 15 11 9 10 10 10 9
11 13 15 14 14 13 12 10 11 11 10 10 9 9 9 8 7 8 6 8 7 6 7 7 7 7 8 9 9 10 11 12 13 14 12 9 13 12 9 10 11 11 11
8 9 11 14 13 13 15 12 10 10 10 10 10 9 9 9 10 11 9 8 8 7 7 8 8 9 10 12 14 15 14 9 13 11 10 13 13 13 10 11 13 13 13
11 12 10 8 10 10 7 15 11 11 10 9 10 11 9 9 7 4 5 12 10 9 10 11 12 12 11 11 9 17 9 12 11 12 10 15 13 13 12 11 14 15 16
7 6 4 12 6 8 8 10 7 8 7 7 9 9 9 5 5 6 5 8 8 14 9 14 11 11 12 10 10 7 13 11 8 9 11 15 15 15 14 14 15 16 17
2 5 5 3 8 7 5 6 6 5 6 3 8 8 3 4 2 5 5 9 7 4 6 8 6 9 9 10 12 13 14 12 10 8 11 17 16 15 16 15 16 18 19
6 3 3 4 5 6 7 3 1 4 6 8 6 7 6 4 4 2 2 3 3 1 3 5 7 8 10 12 11 11 14 15 16 10 9 12 15 15 16 17 18 19 20
3 6 5 6 6 5 6 4 1 2 4 5 4 7 8 2 4 2 6 2 4 7 5 5 7 7 9 10 11 12 13 13 15 15 12 12 18 20 20 20 20 22 23
7 6 6 4 7 6 6 6 5 6 6 4 4 4 5 5 5 4 3 4 3 5 5 7 7 9 11 11 13 12 12 12 11 12 13 13 13 19 21 23 24 25 25
7 7 8 8 13 9 6 5 8 4 3 5 3 7 3 6 5 3 3 3 7 6 7 8 8 10 11 12 11 12 12 13 15 11 9 12 12 13 16 23 25 25 26
6 6 7 7 11 11 10 9 8 6 7 9 6 6 5 4 4 3 2 5 5 6 6 7 8 9 10 11 12 12 12 12 13 14 13 8 12 15 11 12 26 25 26
6 6 7 8 7 10 8 5 6 7 4 4 3 8 5 4 4 3 3 2 5 7 8 8 9 10 11 11 13 13 12 13 12 13 14 12 12 13 16 16 12 14 25
3 5 7 9 8 6 9 10 8 7 5 6 7 7 6 4 4 2 5 6 6 7 8 8 9 11 11 11 11 11 11 13 14 12 12 13 16 16 16 14 13 13 14
5 5 4 6 7 10 7 4 5 7 7 7 7 5 4 3 3 4 7 7 7 9 9 10 10 10 11 10 12 12 13 11 12 12 12 13 16 13 12 13 13 16 14
8 7 7 6 6 3 6 4 5 6 5 6 7 7 6 3 4 4 6 7 8 8 10 10 11 13 12 11 12 13 13 13 13 14 16 13 13 10 5 8 17 13 8
10 10 9 8 7 7 7 6 6 6 6 6 1 6 2 2 4 5 6 8 8 9 10 11 10 12 12 12 11 11 13 14 13 15 12 13 15 15 14 11 12 14 14
8 9 8 8 7 6 5 4 3 2 3 3 1 2 2 5 4 6 7 8 9 9 10 12 12 12 12 12 13 12 12 13 13 8 13 13 12 11 11 13 8 3 16
6 7 6 5 4 4 4 3 4 3 3 4 1 4 5 4 5 6 8 9 10 10 11 11 12 14 13 13 13 13 13 13 12 11 14 15 15 14 12 10 9 9 7
Wind_Direction
113 125 126 124 118 121 127 131 128 127 128 135 139 141 138 135 132 130 125 112 116 114 113 109 112 117 87 86 93 80 93 88 81 84 88 95 103 110 118 212 290 148 106
113 136 129 121 119 121 126 128 125 125 130 140 139 140 141 138 135 131 130 124 122 115 110 105 109 118 105 105 123 114 113 116 127 143 170 173 156 148 154 281 13 82 99
119 131 143 122 120 122 124 125 127 131 138 145 140 144 146 144 142 137 137 133 124 114 109 106 110 119 112 115 132 140 144 157 188 217 222 222 159 156 173 190 56 88 115
124 141 137 130 128 128 129 127 129 134 140 140 139 148 150 148 147 146 145 140 128 116 108 108 112 118 117 123 154 165 175 195 217 246 244 240 156 155 168 185 193 187 187
133 148 128 136 133 136 135 134 133 139 141 140 144 149 151 152 150 149 151 152 143 129 121 122 121 123 137 177 190 206 210 223 238 251 258 254 22 145 159 182 200 201 207
141 144 130 132 132 137 140 144 143 143 143 146 152 154 156 157 154 152 156 162 157 150 147 148 145 142 227 230 221 230 242 246 254 242 260 100 259 150 161 181 226 174 184
147 118 142 135 135 143 149 153 151 148 146 149 154 156 159 161 159 160 162 166 168 169 166 168 172 193 217 242 248 242 247 257 260 256 232 191 106 154 162 177 205 211 205
142 131 137 139 143 147 152 154 151 152 152 151 153 157 163 163 165 166 172 176 183 190 198 207 213 224 233 237 240 245 250 256 257 251 267 227 156 163 170 177 194 207 209
139 136 156 160 154 154 156 155 154 153 149 148 150 154 161 169 175 180 183 192 197 209 219 222 230 239 250 253 249 247 250 254 264 270 275 243 131 153 167 189 195 203 212
148 148 152 160 170 174 161 161 161 160 159 155 157 161 167 171 180 188 193 203 213 221 229 234 240 245 250 254 251 247 247 253 253 260 266 273 137 145 157 205 204 204 210
152 148 161 160 172 194 160 154 161 166 164 162 167 173 172 206 179 179 207 167 194 223 241 245 247 247 250 250 240 234 232 246 249 243 241 142 153 144 157 201 209 206 206
167 164 179 155 186 198 186 143 183 172 184 191 186 175 218 218 191 248 138 160 190 215 237 241 237 236 240 261 243 216 230 244 251 257 260 142 156 157 175 203 220 215 209
165 131 249 139 214 219 199 156 182 174 188 191 196 182 215 180 194 203 192 195 208 203 229 213 222 228 238 244 273 216 224 240 239 250 264 164 167 174 187 201 223 227 217
18 128 163 171 176 231 216 186 187 193 180 203 192 188 225 223 154 334 338 5 27 20 330 347 321 340 307 283 280 284 279 274 273 267 260 168 178 186 196 207 220 228 225
134 190 228 192 191 195 239 123 316 175 174 205 159 171 184 197 189 218 12 344 316 316 334 312 296 301 301 293 281 266 263 273 272 272 274 190 183 191 203 213 224 232 230
172 133 185 202 164 200 214 188 192 91 201 187 181 148 184 189 104 202 213 276 251 194 197 233 248 268 284 286 278 281 287 289 281 275 271 262 196 198 205 211 219 228 232
187 165 198 192 138 170 212 193 189 186 172 186 151 139 101 176 173 268 250 284 318 352 310 262 283 295 289 287 285 279 273 268 258 271 271 267 270 215 210 212 217 220 225
249 158 203 211 144 158 171 195 206 163 155 113 138 148 157 177 217 143 240 355 25 305 308 309 310 307 304 302 302 296 290 281 268 264 273 290 262 257 225 222 219 218 220
226 233 229 204 158 159 149 188 176 149 207 165 191 168 129 80 122 300 320 19 345 303 313 318 312 324 316 303 298 294 293 290 291 276 258 264 279 294 259 253 218 220 219
239 215 204 202 177 174 152 216 159 181 176 163 103 81 125 106 96 339 351 21 316 317 325 345 327 306 299 290 296 302 300 290 272 280 290 269 255 258 282 281 244 221 224
172 182 192 205 148 181 181 195 181 168 127 147 93 124 132 105 80 16 332 350 323 314 339 303 297 303 297 302 295 284 286 291 289 268 257 270 258 252 244 240 262 250 222
98 103 143 172 154 212 193 228 172 149 176 140 128 127 113 87 31 332 353 332 332 319 312 305 290 297 295 300 298 296 297 298 287 270 257 256 259 252 256 278 246 242 271
103 109 112 122 140 151 102 107 87 89 102 163 158 171 101 18 0 341 326 316 312 298 293 312 310 301 288 286 299 290 291 293 309 311 307 303 297 287 238 229 253 264 272
104 102 102 104 117 137 188 147 162 185 195 79 105 71 351 269 327 313 308 315 314 308 300 290 296 316 305 291 285 287 285 288 283 292 289 302 306 298 287 279 267 267 266
108 98 96 88 76 65 52 91 213 306 124 160 219 100 293 245 268 306 309 316 313 303 311 303 290 285 286 284 284 291 295 302 290 264 284 277 283 281 288 294 279 213 255
131 120 108 103 92 87 77 60 29 62 346 314 342 311 279 303 312 303 318 315 309 296 295 304 297 289 284 286 287 287 283 283 295 290 293 297 297 303 299 295 296 296 315